Probability
29 35 74 74 77 77 81 84 84 84 84 77 81 77 71 74 77 81 74 77 71 71 71 68 61 61 61 58 52 52 65 65 65 58 58 61 65 61 58 52 55 39 74
35 39 81 84 81 81 84 84 84 81 81 81 84 84 74 74 71 68 74 77 77 77 65 65 61 61 55 55 58 58 61 61 65 58 55 55 61 58 65 52 52 55 68
35 42 74 84 81 74 81 77 81 81 81 81 84 87 87 74 71 71 81 77 74 65 58 58 58 58 61 52 52 65 58 55 52 55 55 26 39 52 52 58 61 58 52
29 48 61 84 77 74 74 77 74 77 77 87 90 84 71 77 74 65 68 71 71 65 61 61 52 58 55 52 55 61 55 52 45 42 35 26 13 42 55 58 52 48 45
35 48 71 84 81 74 74 81 77 74 81 84 84 77 71 74 74 68 68 68 55 58 61 58 55 52 52 48 48 52 45 52 52 35 23 35 29 45 45 48 58 48 55
29 39 68 84 84 84 81 87 84 84 84 84 81 84 81 77 74 71 68 55 55 45 42 52 55 45 52 42 39 39 39 52 39 23 29 35 26 55 42 39 39 52 55
23 23 52 97 94 87 84 84 84 87 84 84 87 90 81 77 77 65 55 55 52 45 45 48 55 45 42 42 39 48 52 45 39 26 39 35 42 65 52 32 39 48 45
29 35 68 90 94 87 87 87 90 90 81 84 81 84 87 77 68 68 58 55 45 45 48 48 48 42 42 39 39 52 65 52 26 19 39 39 45 61 45 39 42 45 52
32 39 45 65 77 87 90 84 84 84 81 81 74 74 74 74 77 74 65 52 48 39 39 35 39 32 26 42 55 61 58 61 35 16 23 29 52 61 42 42 48 45 55
39 39 39 45 58 45 55 77 81 77 74 77 74 68 74 74 68 74 68 65 48 32 29 35 35 45 45 45 48 52 55 48 23 6 16 29 65 52 45 52 42 45 48
29 48 48 48 48 32 32 52 77 74 77 74 77 68 71 71 48 71 65 65 58 52 55 55 52 48 52 52 52 61 48 29 23 26 26 39 61 55 58 55 48 42 42
35 42 58 58 55 32 29 74 77 61 77 87 84 74 87 90 84 52 61 74 52 55 58 58 61 48 42 32 42 52 32 29 16 23 32 68 68 58 55 58 55 48 48
39 42 61 58 71 61 68 65 77 81 84 81 77 77 87 77 74 65 68 61 71 52 48 48 55 42 39 39 45 45 39 19 19 19 19 68 65 61 61 55 52 55 52
45 48 55 65 77 90 81 74 74 68 77 81 81 71 81 77 74 87 77 87 84 81 77 55 52 48 48 42 39 42 29 26 23 32 32 58 65 61 58 58 55 52 42
48 58 68 77 90 90 90 84 71 74 74 84 81 77 68 77 77 84 90 87 84 84 74 71 65 58 58 52 48 35 26 29 29 32 39 45 52 55 52 58 58 52 48
55 61 68 71 87 90 90 87 81 77 81 81 74 68 71 74 87 84 90 90 84 87 81 68 65 74 58 61 58 55 39 35 26 23 16 26 45 55 45 48 48 55 48
52 65 65 68 84 87 87 77 81 81 74 84 77 81 74 81 84 84 87 87 84 81 71 74 65 68 61 65 58 65 52 52 42 35 32 29 26 48 48 48 48 48 45
58 71 68 48 71 84 81 77 71 74 77 84 77 77 77 81 81 84 81 81 87 84 77 74 68 68 68 71 68 65 61 65 55 52 42 42 35 23 39 58 58 65 45
61 74 74 77 71 68 74 77 74 81 81 84 77 74 77 74 71 74 77 81 84 84 81 65 65 68 68 68 65 58 61 58 58 45 35 48 58 45 29 35 58 58 58
65 77 77 77 81 74 74 84 84 84 81 77 81 77 71 71 71 77 77 81 77 71 74 71 68 71 71 61 29 42 52 55 58 52 48 39 55 42 35 26 32 42 55
61 77 77 77 74 77 71 77 77 81 74 74 74 74 71 71 71 74 71 77 71 68 71 61 65 61 65 65 52 45 48 48 52 55 55 45 32 29 45 48 32 32 29
65 71 74 77 74 71 77 81 81 77 71 74 71 71 71 61 65 55 68 71 68 71 65 68 74 65 45 55 55 45 29 32 29 16 42 45 39 42 45 35 48 42 35
58 65 65 71 77 77 77 77 74 81 77 77 77 77 68 61 71 65 68 61 65 65 65 68 68 58 48 52 52 48 39 29 32 39 32 39 32 35 39 35 35 39 32
61 61 74 74 74 77 77 77 81 77 74 74 77 71 68 68 65 61 58 58 58 58 65 61 61 61 61 55 52 48 45 35 29 26 32 39 32 29 32 23 29 35 35
55 65 71 77 84 84 81 81 84 81 81 71 71 71 68 65 61 61 55 55 61 55 58 65 65 65 65 58 45 48 45 48 39 29 16 26 29 35 39 45 35 35 35
58 58 68 77 84 84 84 84 84 77 77 74 71 71 68 68 61 65 55 55 55 55 61 61 61 61 65 61 55 52 48 39 39 35 26 19 19 29 29 35 32 35 29
Height
5877 5877 5876 5876 5876 5875 5875 5875 5874 5874 5874 5873 5873 5873 5873 5873 5873 5873 5873 5874 5874 5875 5875 5876 5877 5878 5878 5879 5880 5880 5881 5882 5882 5883 5884 5884 5885 5885 5886 5886 5887 5887 5888
5879 5878 5878 5878 5877 5877 5876 5876 5876 5876 5875 5875 5875 5875 5875 5875 5875 5875 5875 5875 5876 5876 5877 5878 5878 5879 5879 5880 5881 5881 5882 5882 5883 5883 5884 5885 5885 5886 5886 5887 5887 5887 5888
5880 5880 5880 5879 5879 5878 5878 5878 5878 5877 5877 5877 5877 5877 5877 5876 5876 5876 5876 5876 5877 5877 5878 5879 5879 5880 5880 5881 5881 5882 5882 5883 5884 5884 5884 5885 5885 5886 5886 5887 5887 5888 5888
5882 5882 5881 5881 5880 5880 5879 5879 5879 5879 5878 5878 5878 5878 5878 5878 5878 5878 5878 5878 5878 5879 5879 5879 5880 5881 5881 5882 5882 5883 5883 5884 5884 5885 5885 5885 5886 5886 5887 5887 5887 5887 5888
5884 5883 5883 5882 5882 5881 5881 5881 5880 5880 5880 5880 5879 5879 5879 5879 5879 5879 5879 5879 5879 5880 5880 5880 5881 5881 5882 5883 5883 5884 5884 5885 5885 5886 5886 5886 5886 5887 5887 5888 5888 5888 5888
5886 5885 5884 5884 5883 5883 5882 5882 5882 5882 5881 5881 5881 5880 5880 5880 5880 5880 5880 5880 5880 5880 5881 5881 5882 5882 5883 5883 5884 5884 5885 5886 5886 5886 5886 5886 5887 5887 5888 5888 5888 5888 5889
5887 5887 5886 5885 5885 5884 5884 5883 5883 5883 5883 5882 5882 5881 5881 5881 5881 5881 5881 5881 5881 5881 5882 5882 5882 5883 5883 5884 5885 5885 5886 5886 5887 5887 5887 5887 5888 5888 5888 5888 5889 5889 5889
5889 5888 5887 5886 5886 5885 5885 5885 5884 5884 5884 5883 5883 5883 5882 5882 5882 5882 5882 5882 5882 5882 5883 5883 5883 5884 5884 5885 5885 5886 5886 5887 5887 5888 5888 5888 5888 5888 5888 5889 5889 5889 5890
5890 5889 5888 5887 5887 5886 5886 5886 5885 5885 5885 5884 5884 5884 5883 5883 5883 5883 5883 5883 5883 5883 5883 5884 5884 5884 5885 5885 5886 5886 5887 5887 5887 5888 5888 5888 5888 5889 5889 5889 5889 5890 5890
5892 5891 5890 5889 5888 5888 5887 5887 5886 5886 5885 5885 5885 5884 5884 5884 5884 5884 5884 5884 5884 5884 5884 5884 5885 5885 5885 5886 5886 5887 5887 5887 5888 5888 5888 5888 5888 5888 5889 5889 5890 5890 5890
5893 5892 5891 5890 5889 5889 5888 5887 5887 5886 5886 5886 5885 5885 5885 5885 5884 5884 5884 5884 5885 5885 5885 5885 5886 5885 5886 5886 5887 5887 5887 5888 5888 5888 5888 5889 5889 5889 5889 5890 5890 5890 5891
5895 5894 5893 5892 5891 5890 5889 5888 5888 5887 5887 5886 5886 5886 5886 5885 5885 5885 5885 5885 5885 5885 5885 5886 5886 5886 5887 5887 5887 5888 5888 5888 5888 5888 5888 5888 5889 5889 5889 5890 5890 5890 5891
5897 5896 5894 5893 5892 5891 5890 5889 5888 5888 5888 5887 5887 5887 5886 5886 5885 5885 5885 5885 5885 5885 5886 5886 5887 5887 5887 5888 5888 5888 5888 5888 5889 5889 5889 5889 5889 5889 5889 5889 5890 5890 5890
5899 5897 5896 5895 5894 5892 5891 5890 5889 5889 5888 5888 5887 5887 5887 5886 5886 5886 5886 5885 5885 5886 5886 5887 5887 5888 5888 5888 5888 5888 5888 5888 5889 5889 5888 5889 5889 5889 5889 5889 5889 5890 5890
5900 5899 5898 5896 5895 5894 5892 5891 5891 5890 5889 5889 5888 5888 5887 5886 5886 5886 5886 5886 5886 5886 5887 5887 5887 5888 5888 5888 5888 5888 5888 5888 5888 5888 5888 5888 5888 5889 5889 5889 5889 5889 5889
5902 5901 5899 5898 5897 5896 5894 5893 5892 5891 5891 5890 5890 5889 5888 5887 5887 5887 5886 5886 5886 5886 5887 5887 5887 5887 5887 5887 5888 5888 5888 5888 5888 5888 5888 5888 5888 5888 5888 5888 5888 5888 5888
5904 5903 5901 5900 5899 5898 5896 5895 5894 5893 5892 5891 5891 5890 5889 5888 5887 5887 5887 5887 5887 5887 5887 5887 5887 5887 5887 5887 5887 5887 5887 5887 5887 5887 5887 5888 5887 5887 5887 5887 5887 5887 5887
5905 5904 5903 5902 5900 5899 5898 5897 5896 5894 5893 5892 5891 5890 5889 5889 5888 5888 5887 5887 5887 5887 5887 5887 5887 5887 5886 5887 5887 5887 5887 5887 5886 5887 5887 5887 5887 5887 5886 5886 5886 5886 5886
5907 5906 5904 5903 5902 5901 5900 5899 5898 5896 5895 5894 5893 5892 5890 5889 5889 5889 5888 5888 5888 5887 5887 5887 5886 5886 5886 5886 5886 5886 5886 5886 5885 5886 5886 5886 5886 5885 5885 5885 5885 5885 5885
5908 5907 5906 5905 5904 5903 5902 5901 5899 5898 5897 5896 5894 5893 5892 5891 5890 5889 5889 5888 5887 5887 5886 5886 5886 5885 5885 5885 5885 5885 5885 5885 5885 5885 5885 5884 5884 5884 5884 5884 5884 5883 5883
5909 5908 5907 5906 5905 5904 5903 5902 5901 5900 5899 5897 5896 5894 5893 5892 5891 5890 5889 5888 5887 5887 5886 5885 5885 5884 5884 5884 5884 5884 5884 5884 5884 5884 5883 5884 5883 5883 5882 5882 5882 5882 5881
5911 5910 5909 5907 5906 5906 5905 5904 5903 5901 5900 5899 5897 5896 5894 5892 5891 5890 5889 5888 5887 5886 5886 5885 5884 5884 5883 5883 5883 5883 5883 5883 5882 5882 5882 5882 5882 5881 5881 5880 5879 5879 5879
5912 5910 5909 5908 5908 5907 5906 5905 5904 5902 5901 5900 5898 5896 5895 5893 5892 5890 5889 5888 5887 5886 5885 5884 5884 5883 5883 5882 5882 5882 5882 5882 5881 5880 5880 5879 5879 5879 5879 5878 5878 5878 5878
5913 5912 5910 5910 5909 5908 5907 5906 5905 5903 5902 5901 5899 5897 5895 5894 5892 5891 5889 5888 5887 5886 5885 5884 5883 5883 5882 5881 5881 5880 5880 5879 5879 5878 5878 5877 5877 5876 5877 5876 5876 5876 5875
5913 5912 5912 5911 5910 5909 5908 5906 5905 5904 5903 5901 5900 5898 5896 5894 5892 5891 5889 5888 5886 5885 5884 5883 5883 5882 5881 5880 5879 5879 5878 5878 5877 5877 5876 5875 5874 5874 5873 5873 5873 5873 5873
5914 5913 5912 5911 5910 5909 5908 5907 5906 5905 5903 5902 5900 5899 5897 5895 5893 5891 5889 5888 5886 5885 5883 5882 5881 5880 5879 5878 5878 5877 5876 5876 5875 5875 5874 5873 5872 5871 5871 5871 5870 5870 5870
Wind_Speed
9 9 8 8 8 8 8 8 8 8 7 7 7 8 7 7 7 7 7 7 7 7 7 7 8 7 7 6 6 6 6 5 5 5 4 4 4 3 3 3 2 2 2
8 8 8 8 7 7 7 8 8 8 7 7 7 7 7 7 6 6 6 6 6 6 6 6 6 7 6 6 6 6 6 5 5 5 4 4 4 3 2 3 2 2 3
8 8 9 8 8 7 7 7 7 7 6 7 7 7 7 6 6 5 5 5 6 6 6 6 6 6 6 5 6 6 6 6 6 4 4 4 4 3 3 3 3 2 3
9 8 8 8 7 7 7 7 7 6 6 6 6 6 6 6 5 5 5 5 5 5 6 6 6 6 5 5 6 5 5 5 5 4 4 4 4 4 3 3 3 3 3
8 8 8 8 7 7 7 6 6 6 5 5 5 5 5 5 5 5 5 5 5 5 5 5 5 5 5 5 5 5 5 5 4 4 4 4 4 4 3 3 3 2 3
8 8 8 7 7 7 6 6 5 5 5 5 4 4 5 5 4 4 4 4 4 4 4 5 5 5 4 4 5 4 4 4 3 4 3 3 4 3 3 3 3 2 2
8 8 8 7 7 7 6 6 5 5 5 5 4 4 4 4 4 4 4 4 4 4 4 4 4 4 4 4 4 4 4 3 3 3 3 3 3 3 3 3 3 1 1
8 8 7 7 7 7 6 6 5 5 5 4 4 3 4 3 3 4 4 4 4 4 3 3 4 4 4 4 4 3 3 2 3 2 2 2 2 2 2 2 2 2 2
8 8 8 7 7 7 6 6 5 5 4 4 3 3 3 3 2 3 3 3 4 4 3 4 5 5 5 4 4 3 2 2 2 2 2 2 2 2 2 1 2 1 1
8 9 8 7 6 6 6 6 5 5 4 4 3 3 2 2 2 1 2 2 3 3 3 4 5 5 5 4 4 3 2 1 1 1 1 1 1 1 1 1 1 1 0
8 9 8 8 7 7 6 6 6 5 5 4 3 3 3 3 2 1 1 2 2 2 3 3 4 4 3 3 3 2 1 1 1 1 1 1 1 1 1 1 1 0 1
9 9 9 9 8 8 7 7 6 6 5 4 4 4 3 3 2 2 2 2 1 1 2 2 2 2 2 2 2 1 1 1 1 1 0 1 1 1 1 1 2 2 2
9 10 10 10 10 9 9 8 7 6 6 5 5 4 4 3 3 1 1 1 1 1 1 1 2 1 1 2 1 1 0 1 1 0 0 1 1 1 1 1 2 3 3
10 10 11 11 11 11 10 9 8 7 7 6 5 4 4 4 3 1 0 0 1 1 2 1 1 0 0 0 1 0 0 1 1 1 1 1 1 2 2 3 3 3 3
11 11 11 11 11 11 11 10 9 8 7 6 6 6 5 4 2 1 1 0 0 0 1 1 1 1 1 1 1 1 0 1 1 1 1 1 2 2 3 3 3 3 3
11 11 11 11 11 11 11 10 10 9 8 7 7 7 6 5 3 3 2 1 1 0 0 1 1 1 1 1 1 1 1 1 2 2 1 2 3 3 4 3 3 3 4
11 11 11 11 11 11 10 10 9 9 9 8 7 7 6 5 4 3 4 3 2 1 1 1 1 1 2 2 2 2 3 3 3 2 2 2 3 3 4 3 4 4 4
11 11 10 10 11 11 11 10 9 9 9 10 9 8 7 6 5 5 5 5 4 3 2 2 2 2 2 2 3 4 4 4 3 3 2 3 3 4 4 4 4 4 4
10 10 10 11 11 11 11 11 10 10 9 10 10 10 9 9 7 6 6 5 4 4 3 3 3 3 3 3 4 5 5 4 4 3 3 4 4 4 4 5 5 5 5
10 10 10 10 10 11 11 11 10 11 10 10 11 11 10 10 8 7 7 6 5 5 5 4 4 4 4 4 4 4 4 4 4 4 4 4 4 4 4 5 5 6 6
10 10 10 10 10 10 10 11 11 11 11 11 11 12 11 10 9 8 8 7 6 6 6 5 5 5 5 5 4 4 4 4 4 5 5 5 5 6 6 6 7 7 7
10 10 9 10 9 10 10 11 12 12 12 12 12 11 11 10 10 9 9 8 7 7 7 6 6 6 5 5 4 5 5 5 6 7 7 6 7 7 7 8 7 7 8
8 9 9 10 10 10 10 11 11 12 12 13 13 13 12 11 11 10 10 9 8 7 7 7 6 6 6 5 5 5 5 6 7 8 8 7 7 7 8 8 8 8 9
8 8 10 10 10 10 10 10 11 11 12 13 13 13 12 11 12 12 11 10 9 8 7 7 7 7 7 7 7 7 7 7 8 8 8 8 8 8 9 9 9 9 10
7 8 9 9 9 9 9 10 10 11 11 12 13 13 13 12 12 12 12 11 10 9 8 8 8 7 7 7 8 9 8 8 9 9 8 8 9 9 10 10 10 10 10
8 8 9 9 9 9 9 10 10 11 11 12 13 13 13 13 13 13 12 12 11 10 9 8 8 8 8 8 9 9 10 10 10 10 10 10 10 10 11 11 11 11 11
Wind_Direction
69 70 68 69 69 70 74 78 80 82 83 85 89 88 90 97 98 99 105 115 114 111 116 115 115 119 117 114 115 114 112 114 113 116 121 127 131 128 132 130 132 145 150
65 67 69 71 70 68 73 75 77 83 86 87 90 87 89 91 95 102 107 112 111 111 116 116 111 117 115 114 114 112 109 109 110 109 110 120 119 120 137 129 126 136 143
61 64 64 64 63 65 68 73 75 79 83 86 88 86 87 88 92 100 103 107 107 106 109 111 111 116 113 108 114 112 104 102 104 105 105 102 99 99 107 121 125 137 149
57 58 59 57 58 60 66 71 72 75 79 85 88 87 87 88 95 92 98 102 106 107 113 115 116 121 118 114 113 111 107 104 101 97 90 90 98 102 105 108 111 123 139
56 55 51 50 50 53 62 66 67 71 76 80 84 85 84 84 87 89 88 96 99 102 108 115 116 120 115 110 112 110 106 99 99 92 87 84 89 96 100 98 95 97 111
53 49 43 44 42 50 59 60 61 65 71 74 77 79 80 80 79 78 83 93 96 96 103 114 111 111 109 111 114 106 104 105 98 89 84 76 82 87 85 83 77 83 103
48 43 40 39 39 48 55 57 57 57 63 69 74 76 77 76 79 79 80 86 91 93 98 106 111 113 112 120 120 115 112 115 100 84 75 74 79 72 73 71 64 90 113
41 34 34 37 43 48 51 52 53 54 62 66 74 76 75 72 83 79 77 81 88 95 102 107 114 125 130 130 127 127 123 114 99 99 84 81 75 60 59 69 70 102 103
40 36 35 38 44 48 48 49 47 47 51 58 62 61 63 60 73 82 73 82 91 96 101 110 113 115 119 122 119 116 116 117 114 112 103 95 73 46 36 49 76 105 121
40 38 38 38 41 43 42 41 41 40 39 44 47 47 54 51 63 89 85 86 90 90 99 114 118 116 117 118 114 103 101 121 133 115 84 78 53 18 2 15 60 112 177
39 39 40 36 38 41 37 35 37 38 37 36 35 45 44 42 55 57 86 101 91 80 98 116 123 123 124 122 108 93 76 73 60 63 46 23 14 351 327 298 258 192 195
38 39 37 35 33 31 31 30 30 34 34 34 33 34 30 30 43 49 86 101 92 101 110 131 135 126 126 128 122 91 53 60 71 51 68 8 340 327 315 267 255 268 251
37 34 33 34 32 31 27 25 26 32 33 36 33 31 17 13 17 5 83 113 122 132 134 147 140 117 125 135 134 105 51 63 60 3 274 316 317 310 300 263 259 273 278
36 31 31 32 30 28 29 30 34 34 33 33 30 28 11 9 10 345 310 175 145 156 177 179 146 171 199 190 154 156 6 45 7 344 285 286 307 304 293 282 281 276 277
33 30 31 31 30 31 33 35 39 40 36 32 31 21 17 14 18 13 15 76 12 267 219 224 274 262 253 231 213 224 297 345 324 324 286 285 308 316 313 297 280 275 268
33 33 30 31 32 33 35 38 41 40 33 35 30 26 23 23 20 26 27 18 350 322 287 313 287 253 252 241 240 249 272 297 306 298 286 298 303 305 298 300 292 285 283
30 31 32 32 33 33 33 34 38 38 39 39 33 27 26 32 35 47 39 34 25 6 334 329 319 297 273 255 249 250 263 273 288 295 282 289 298 300 299 301 300 294 290
28 31 33 32 34 36 39 42 39 38 37 35 32 29 33 41 43 39 38 30 34 24 354 326 314 304 288 275 259 261 270 266 273 289 295 301 300 295 295 297 302 297 297
28 29 31 34 36 37 39 42 43 41 39 41 39 40 42 40 38 35 27 20 15 12 5 352 342 321 301 288 273 270 268 267 273 281 291 301 303 299 293 290 292 296 296
28 27 28 32 34 35 38 39 44 43 41 37 32 31 30 29 29 24 18 9 359 358 357 353 347 328 311 296 282 271 266 274 274 283 292 298 304 303 297 292 293 293 295
28 26 26 28 30 34 36 37 38 34 32 28 23 23 22 20 18 13 9 6 2 1 358 349 346 334 316 300 292 282 277 280 287 289 289 291 296 299 297 297 295 292 293
27 27 25 23 22 27 30 30 29 27 25 22 19 18 17 14 9 4 4 3 5 3 355 350 347 340 328 314 303 294 291 288 294 298 296 292 293 293 297 297 294 295 299
22 21 21 21 23 20 22 24 26 24 21 19 18 17 16 14 9 6 3 1 357 357 352 348 341 339 338 325 310 299 292 297 295 293 295 293 293 289 294 296 295 298 299
13 14 15 17 19 18 18 19 19 18 17 16 16 18 15 12 9 5 0 356 352 349 345 341 339 331 327 322 314 304 297 296 297 290 290 290 290 289 286 289 289 293 296
3 4 7 11 13 13 12 13 14 13 14 14 13 13 11 10 6 2 1 359 353 348 342 336 332 327 321 314 309 305 296 295 296 290 289 288 286 285 284 285 287 287 291
358 359 358 3 5 5 5 7 7 7 7 7 8 7 6 5 2 360 359 358 355 350 341 333 328 321 319 313 310 307 300 295 294 292 293 291 289 287 284 284 285 280 285